Weather History for West Plains, MO

Change the Weather History Date:

Monday, November 12, 2012

  Actual Average Record
Temperature  
Mean Temperature 37 °F 48 °F  
Max Temperature 48 °F 59 °F 84 °F (1989)
Min Temperature 26 °F 38 °F 16 °F (1950)
Degree Days  
Heating Degree Days 28 17  
Month to date heating degree days 192 176  
Since 1 July heating degree days 560 479  
Cooling Degree Days 0 0  
Month to date cooling degree days 0 0  
Year to date cooling degree days 1739 1352  
Moisture  
Dew Point 23 °F    
Average Humidity 63    
Maximum Humidity 89    
Minimum Humidity 33    
Precipitation  
Precipitation 0.00 in 0.15 in 1.67 in (1992)
Month to date precipitation 1.30 1.72  
Year to date precipitation 29.56 39.72  
Sea Level Pressure  
Sea Level Pressure 30.35 in    
Wind  
Wind Speed 8 mph (WNW)    
Max Wind Speed 20 mph    
Max Gust Speed 26 mph    
Visibility 10 miles    
Events      
T = Trace of Precipitation, MM = Missing Value Source: NWS Daily Summary

Daily Weather History Graph

Daily Weather History Graph

Search for Another Location

Airport:

Trip Planner

Search our weather history database for the weather conditions in past years. The results will help you decide how hot, cold, wet, or windy it might be!

Date:

Astronomy

Nov. 12, 2012 Rise Set
Actual Time 6:43 AM CST 4:59 PM CST
Civil Twilight 6:15 AM CST 5:27 PM CST
Nautical Twilight 5:44 AM CST 5:58 PM CST
Astronomical Twilight 5:14 AM CST 6:29 PM CST
Moon 5:10 AM CST (11/12) 4:04 PM CST (11/12)
Length of Visible Light 11h 11m
Length of Day
10h 16m
Waning Crescent, 2% of the Moon is Illuminated
Nov 12
Waning Crescent
Nov 13
New
Nov 20
First Quarter
Nov 28
Full
Dec 6
Last Quarter

Hourly Weather History & Observations

Time (CST) Temp. Windchill Dew Point Humidity Pressure Visibility Wind Dir Wind Speed Gust Speed Precip Events Conditions
12:53 AM 35.1 °F 27.4 °F 32.0 °F 89% 30.18 in 7.0 mi NW 10.4 mph 23.0 mph N/A   Overcast
1:12 AM 33.8 °F 23.9 °F 30.2 °F 87% 30.18 in 8.0 mi NNW 15.0 mph 24.2 mph N/A   Overcast
1:46 AM 33.8 °F 23.9 °F 28.4 °F 81% 30.20 in 10.0 mi WNW 15.0 mph 23.0 mph N/A   Overcast
1:53 AM 33.1 °F 23.0 °F 28.0 °F 82% 30.22 in 10.0 mi WNW 15.0 mph 20.7 mph N/A   Overcast
2:30 AM 32.0 °F 23.0 °F 26.6 °F 80% 30.23 in 10.0 mi WNW 11.5 mph 19.6 mph N/A   Mostly Cloudy
2:38 AM 30.2 °F 19.3 °F 24.8 °F 80% 30.21 in 10.0 mi NW 15.0 mph 19.6 mph N/A   Mostly Cloudy
2:53 AM 30.9 °F 22.2 °F 25.0 °F 79% 30.23 in 10.0 mi NW 10.4 mph - N/A   Partly Cloudy
3:53 AM 30.0 °F 21.7 °F 23.0 °F 75% 30.26 in 10.0 mi NW 9.2 mph 19.6 mph N/A   Clear
4:53 AM 28.9 °F 21.9 °F 21.0 °F 72% 30.30 in 10.0 mi NW 6.9 mph - N/A   Clear
5:53 AM 28.0 °F 21.7 °F 19.9 °F 72% 30.33 in 10.0 mi NW 5.8 mph - N/A   Clear
6:53 AM 26.1 °F 21.9 °F 19.9 °F 78% 30.36 in 10.0 mi West 3.5 mph - N/A   Clear
7:53 AM 30.0 °F 24.1 °F 21.0 °F 69% 30.39 in 10.0 mi WNW 5.8 mph - N/A   Clear
8:53 AM 33.1 °F 25.5 °F 19.9 °F 59% 30.41 in 10.0 mi NNW 9.2 mph - N/A   Clear
9:53 AM 37.0 °F 32.4 °F 21.0 °F 52% 30.43 in 10.0 mi NW 5.8 mph - N/A   Clear
10:53 AM 41.0 °F 36.4 °F 21.9 °F 47% 30.43 in 10.0 mi WNW 6.9 mph - N/A   Clear
11:53 AM 44.1 °F 40.8 °F 21.9 °F 42% 30.39 in 10.0 mi Variable 5.8 mph - N/A   Clear
12:53 PM 46.9 °F - 23.0 °F 39% 30.38 in 10.0 mi WNW 11.5 mph 16.1 mph N/A   Clear
1:53 PM 48.0 °F - 19.9 °F 33% 30.37 in 10.0 mi WNW 13.8 mph 21.9 mph N/A   Clear
2:53 PM 48.0 °F - 19.9 °F 33% 30.38 in 10.0 mi WNW 12.7 mph 19.6 mph N/A   Clear
3:53 PM 46.0 °F 40.2 °F 19.0 °F 34% 30.40 in 10.0 mi West 12.7 mph 20.7 mph N/A   Clear
4:53 PM 42.1 °F 38.4 °F 19.0 °F 40% 30.42 in 10.0 mi West 5.8 mph - N/A   Clear
5:53 PM 37.0 °F 34.5 °F 21.9 °F 54% 30.44 in 10.0 mi West 3.5 mph - N/A   Clear
7:53 PM 35.1 °F 32.2 °F 19.9 °F 54% 30.46 in 10.0 mi WNW 3.5 mph - N/A   Clear
8:53 PM 33.1 °F 28.7 °F 21.9 °F 64% 30.47 in 10.0 mi West 4.6 mph - N/A   Clear
9:53 PM 32.0 °F 27.5 °F 21.9 °F 66% 30.47 in 10.0 mi West 4.6 mph - N/A   Clear
10:53 PM 32.0 °F 27.5 °F 21.0 °F 64% 30.47 in 10.0 mi West 4.6 mph - N/A   Clear
11:53 PM 32.0 °F 27.5 °F 21.0 °F 64% 30.49 in 10.0 mi WSW 4.6 mph - N/A   Clear